[[{"header":{"parameterUnit":"m.s-1","parameterCategory":1,"la1":30.2992,"la2":30.254,"lo1":-89.0895,"lo2":-89.0443,"dy":0.0025,"dx":0.0025,"nx":19,"ny":19,"refTime":"2026-04-07T09:00:00:Z","depth":0,"parameterNumber":2,"parameterNumberName":"U-component_of_WINDS"},"data":[0,0,0,-3.4436,-3.444,-3.4623,-3.4624,-3.4859,-3.4861,0,0,0,0,0,0,0,0,0,0,0,-3.4382,-3.4384,-3.4436,-3.4441,-3.4623,-3.4624,-3.4859,-3.4861,0,0,0,0,0,0,0,0,0,0,0,-3.4382,-3.4383,-3.4386,-3.4441,-3.4623,-3.4624,-3.4858,-3.472,0,0,0,0,0,0,0,0,0,0,-3.4542,-3.4492,-3.4383,-3.4386,-3.4442,-3.4623,-3.4624,-3.4713,-3.4729,-3.4777,0,-3.4819,0,-3.4844,-3.4877,-3.4878,0,0,0,-3.4441,-3.448,-3.4529,-3.4386,-3.4444,-3.4623,-3.4541,-3.4722,-3.4739,-3.4797,-3.4822,-3.4831,-3.4848,-3.4878,-3.488,-3.5155,-3.5156,0,0,-3.4431,-3.4415,-3.4517,-3.454,-3.4511,-3.4535,-3.4546,-3.4732,-3.4759,-3.4823,-3.4836,-3.4852,-3.488,-3.4882,-3.5154,-3.5155,0,0,0,-3.4402,-3.4408,-3.4453,-3.453,-3.4563,-3.454,-3.4554,-3.4751,-3.4766,-3.4839,-3.4854,-3.4881,-3.4884,-3.5153,-3.5154,-3.5202,0,0,0,-3.4396,-3.4391,-3.4449,-3.4441,-3.456,-3.4659,-3.4568,-3.4754,-3.4775,-3.4853,-3.4882,-3.4887,-3.5151,-3.5154,-3.5198,-3.5227,0,0,0,-3.437,-3.4388,-3.4415,-3.444,-3.4518,-3.4656,-3.4683,-3.4759,-3.4785,-3.4878,-3.4887,-3.515,-3.5153,-3.5194,-3.522,-3.5294,0,0,0,-3.4339,-3.4455,-3.4415,-3.4551,-3.4516,-3.4684,-3.4682,-3.4808,-3.4894,-3.4883,-3.5151,-3.5154,-3.5193,-3.5216,-3.529,-3.5352,-3.5377,0,0,-3.4476,-3.4471,-3.4552,-3.4522,-3.4693,-3.4658,-3.4837,-3.493,-3.4954,-3.5087,-3.5094,-3.5199,-3.522,-3.5293,-3.5524,-3.5543,0,0,0,-3.459,-3.4648,-3.4696,-3.4777,-3.4851,-3.4917,-3.4985,-3.502,-3.5134,-3.5019,-3.5247,-3.526,-3.5303,-3.5334,-3.535,-3.5389,-3.5168,-3.5168,-3.5167,-3.4761,-3.4784,-3.492,-3.4966,-3.5045,-3.5114,-3.518,-3.5239,-3.524,-3.5294,-3.5333,-3.547,-3.5505,-3.5518,-3.5557,-3.5369,-3.5369,-3.5369,-3.5369,-3.4963,-3.5048,-3.5048,-3.5178,-3.5203,-3.5314,-3.5386,-3.5383,-3.549,-3.5442,-3.5482,-3.5426,-3.5538,-3.5574,-3.5373,-3.5373,-3.5372,-3.5372,-3.5372,-3.5076,-3.5121,-3.5162,-3.5281,-3.5372,-3.5415,-3.5518,-3.5538,-3.5557,-3.5596,-3.5639,-3.5639,-3.5639,-3.5616,-3.5616,-3.5617,-3.5617,-3.5617,-3.5618,-3.5177,-3.5221,-3.5305,-3.5394,-3.5449,-3.5524,-3.5596,-3.5651,-3.5717,-3.5723,-3.5724,-3.5719,-3.5546,-3.5501,-3.5625,-3.5624,-3.5623,-3.5622,-3.5622,-3.537,-3.533,-3.5459,-3.5514,-3.5621,-3.5709,-3.5734,-3.5844,-3.5893,-3.5943,-3.5931,-3.58,-3.5795,-3.5782,-3.5745,-3.5926,-3.5926,-3.5926,-3.5926,-3.5464,-3.5464,-3.5601,-3.5688,-3.5775,-3.5811,-3.5957,-3.6015,-3.6069,-3.6101,-3.6078,-3.6031,-3.6017,-3.6021,-3.6003,-3.5969,-3.6202,-3.6202,-3.6202,-3.5584,-3.5594,-3.5713,-3.5765,-3.5851,-3.5924,-3.6062,-3.6163,-3.6216,-3.6214,-3.6126,-3.6115,-3.6039,-3.6013,-3.6007,-3.5978,-3.5915,0,0]},{"header":{"parameterUnit":"m.s-1","parameterCategory":1,"la1":30.2992,"la2":30.254,"lo1":-89.0895,"lo2":-89.0443,"dy":0.0025,"dx":0.0025,"nx":19,"ny":19,"refTime":"2026-04-07T09:00:00:Z","depth":0,"parameterNumber":3,"parameterNumberName":"V-component_of_WINDS"},"data":[0,0,0,-1.8143,-1.8146,-1.8322,-1.8323,-1.8528,-1.853,0,0,0,0,0,0,0,0,0,0,0,-1.8079,-1.808,-1.8143,-1.8147,-1.8322,-1.8323,-1.8528,-1.853,0,0,0,0,0,0,0,0,0,0,0,-1.8078,-1.808,-1.8081,-1.8147,-1.8322,-1.8323,-1.8527,-1.8402,0,0,0,0,0,0,0,0,0,0,-1.8234,-1.8164,-1.8079,-1.8081,-1.8148,-1.8322,-1.8323,-1.8396,-1.8409,-1.844,0,-1.8464,0,-1.85,-1.8542,-1.8543,0,0,0,-1.8155,-1.8152,-1.8211,-1.8081,-1.815,-1.8321,-1.8245,-1.8404,-1.8419,-1.8458,-1.8467,-1.8475,-1.8503,-1.8543,-1.8544,-1.869,-1.869,0,0,-1.8146,-1.8104,-1.82,-1.822,-1.8192,-1.824,-1.8251,-1.8413,-1.8421,-1.8468,-1.848,-1.8507,-1.8544,-1.8546,-1.8689,-1.869,0,0,0,-1.8112,-1.8097,-1.8152,-1.8211,-1.8244,-1.8245,-1.8257,-1.8413,-1.8435,-1.8483,-1.8509,-1.8546,-1.8548,-1.8689,-1.869,-1.8663,0,0,0,-1.8106,-1.8077,-1.8147,-1.8123,-1.8241,-1.8331,-1.8253,-1.8423,-1.8443,-1.8508,-1.8546,-1.855,-1.8689,-1.8689,-1.8663,-1.8657,0,0,0,-1.8071,-1.8073,-1.8095,-1.8121,-1.8195,-1.8329,-1.836,-1.8429,-1.8459,-1.8543,-1.855,-1.8689,-1.8689,-1.8663,-1.8657,-1.8683,0,0,0,-1.8022,-1.8068,-1.8094,-1.8155,-1.8193,-1.8311,-1.836,-1.845,-1.8519,-1.8547,-1.8689,-1.869,-1.8663,-1.8658,-1.8683,-1.8698,-1.87,0,0,-1.8057,-1.8071,-1.8111,-1.8139,-1.8241,-1.8288,-1.8387,-1.8489,-1.8535,-1.8635,-1.864,-1.8663,-1.8657,-1.8683,-1.8725,-1.8727,0,0,0,-1.8108,-1.8136,-1.8172,-1.8236,-1.8315,-1.8382,-1.8473,-1.8511,-1.8598,-1.8578,-1.868,-1.8678,-1.8695,-1.8704,-1.8705,-1.8723,-1.8692,-1.8692,-1.8692,-1.8099,-1.8155,-1.8224,-1.8301,-1.8361,-1.8455,-1.8509,-1.8576,-1.8615,-1.8638,-1.8669,-1.8687,-1.8696,-1.8697,-1.8715,-1.868,-1.868,-1.868,-1.868,-1.8156,-1.8204,-1.8254,-1.8339,-1.8398,-1.847,-1.8561,-1.8586,-1.8662,-1.8669,-1.8687,-1.869,-1.8697,-1.8715,-1.8679,-1.8679,-1.8679,-1.8679,-1.8679,-1.8156,-1.8189,-1.8234,-1.8332,-1.84,-1.8476,-1.8546,-1.8597,-1.8645,-1.8663,-1.8701,-1.8701,-1.8708,-1.8677,-1.8677,-1.8677,-1.8677,-1.8677,-1.8677,-1.8139,-1.8191,-1.8244,-1.8331,-1.8378,-1.8447,-1.854,-1.8588,-1.8654,-1.8686,-1.8686,-1.8723,-1.8687,-1.8677,-1.8679,-1.8678,-1.8678,-1.8678,-1.8678,-1.8178,-1.8177,-1.8259,-1.8306,-1.8412,-1.8477,-1.854,-1.8633,-1.868,-1.8713,-1.8745,-1.871,-1.8728,-1.8728,-1.872,-1.8733,-1.8733,-1.8733,-1.8733,-1.8179,-1.8192,-1.8288,-1.8359,-1.8436,-1.8501,-1.8591,-1.8664,-1.8739,-1.8771,-1.8777,-1.8771,-1.8768,-1.8788,-1.8786,-1.878,-1.8807,-1.8807,-1.8807,-1.8206,-1.8229,-1.8296,-1.837,-1.8456,-1.8529,-1.8616,-1.8696,-1.8781,-1.8811,-1.8798,-1.8795,-1.8786,-1.878,-1.881,-1.8806,-1.8796,0,0]}]]